Regional Weather Roundup
Issued by NWS

Home | Current Version | Previous Version | Text Only | Print | Product List | Glossary On
Versions: 1 2 3 4 5 6 7 8 9 10 11 12 13 14 15 16 17 18 19 20 21 22 23 24 25 26 27 28 29 30 31 32 33 34 35 36 37 38 39 40 41 42 43 44 45 46 47 48 49 50
000
ASUS44 KEWX 241803
RWRTX
SOUTH TEXAS REGIONAL WEATHER ROUNDUP
NATIONAL WEATHER SERVICE AUSTIN/SAN ANTONIO TX
100 PM CDT MON JUL 24 2017

NOTE: "FAIR" INDICATED FEW OR NO CLOUDS BELOW 12,000 FEET WITH NO
SIGNIFICANT WEATHER AND/OR OBSTRUCTIONS TO VISIBILITY.

* - THESE STATIONS ARE NOT NWS OR FAA STATIONS...AND ARE NOT SUBJECT
    TO NWS AND FAA QUALITY CONTROL.

TXZ171-172-183>190-241900-
TEXAS HILL COUNTRY AND EDWARDS PLATEAU

CITY           SKY/WX    TMP DP  RH WIND       PRES   REMARKS
JUNCTION       SUNNY     88  72  58 VRB5      30.02F HX  94
6HR MIN TEMP:  69; 6HR MAX TEMP:  88;

*LLANO         MOSUNNY   88  75  66 SW6       30.03S HX  97
BURNET         MOSUNNY   90  71  53 VRB6      30.03S HX  96
6HR MIN TEMP:  74; 6HR MAX TEMP:  91;

*HORSESHOE BAY MOSUNNY   90  73  56 SW7       30.00F HX  98
6HR MIN TEMP:  70; 6HR MAX TEMP:  90;

*KERRVILLE     SUNNY     88  76  67 S6        30.03F HX  98
6HR MIN TEMP:  72; 6HR MAX TEMP:  88;

*FREDERICKSBRG MOSUNNY   85  71  61 S7        30.04F HX  90
6HR MIN TEMP:  69; 6HR MAX TEMP:  85;

*ROCKSPRINGS   NOT AVBL
*BOERNE STAGE  SUNNY     90  66  45 S6        30.03F HX  92
*CASTROVILLE   SUNNY     95  61  31 S5        30.00S HX  95
HONDO          SUNNY     95  65  37 SE9       29.98F HX  97
6HR MIN TEMP:  77; 6HR MAX TEMP:  95;

*UVALDE        SUNNY     92  67  44 CALM      29.98F HX  95
DEL RIO        SUNNY     93  70  46 S12       29.95F HX  99
6HR MIN TEMP:  81; 6HR MAX TEMP:  93;

LAUGHLIN AFB   MOSUNNY   92  71  50 SE7       29.96F HX  99
6HR MIN TEMP:  79; 6HR MAX TEMP:  92;

CARRIZO SPRGS  SUNNY     95  64  36 SE7       29.93F HX  97
*EAGLE PASS    NOT AVBL
$$

TXZ173-191>194-202-209-217>225-228-241900-
CENTRAL AND SOUTH CENTRAL TEXAS

CITY           SKY/WX    TMP DP  RH WIND       PRES   REMARKS
GEORGETOWN     MOSUNNY   90  73  58 S5        29.98  HX  98
AUSTIN/BERGSTM MOSUNNY   95  70  44 S13G20    29.97F HX 101
6HR MIN TEMP:  78; 6HR MAX TEMP:  95;

AUSTIN/MABRY   SUNNY     96  70  42 S7        29.99F HX 102
6HR MIN TEMP:  79; 6HR MAX TEMP:  97;

*AUSTIN/EXEC     N/A     91  72  52 S12G17    29.99F HX  98
*LAGO VISTA    SUNNY     91  72  53 S7        30.01F HX  98
6HR MIN TEMP:  76; 6HR MAX TEMP:  91;

SAN MARCOS     SUNNY     93  66  40 S14       30.00F HX  96
NEW BRAUNFELS  SUNNY     96  65  35 S15       29.98F HX  98
6HR MIN TEMP:  77; 6HR MAX TEMP:  96;

RANDOLPH AFB   MOSUNNY   94  64  37 S7        29.99F HX  95
6HR MIN TEMP:  76; 6HR MAX TEMP:  94;

PT SAN ANTONIO MOSUNNY   93  65  39 S10       29.97F HX  95
6HR MIN TEMP:  77; 6HR MAX TEMP:  93;

SAN ANTONIO    MOSUNNY   93  65  39 SE10G20   30.00F HX  95
6HR MIN TEMP:  78; 6HR MAX TEMP:  93;

STINSON FIELD  SUNNY     95  64  35 S6        29.96F HX  97
6HR MIN TEMP:  79; 6HR MAX TEMP:  96;

*LA GRANGE     CLOUDY    96  69  41 S10       29.97F HX 102
6HR MIN TEMP:  78; 6HR MAX TEMP:  96;

*GIDDINGS      CLOUDY    92  65  40 SW8       30.00F HX  94
6HR MIN TEMP:  77; 6HR MAX TEMP:  92;

*GONZALES      CLOUDY    95  69  42 S12G21    29.98F HX 100
6HR MIN TEMP:  77; 6HR MAX TEMP:  95;

$$

TXZ163>164-176>182-195>201-210>213-226-227-235-241900-
SOUTHEAST TEXAS

CITY           SKY/WX    TMP DP  RH WIND       PRES   REMARKS
COLLEGE STN    CLOUDY    93  68  43 S14       29.98F HX  97
6HR MIN TEMP:  80; 6HR MAX TEMP:  93;

*BRYAN         CLOUDY    91  70  49 SW7       30.00F HX  96
6HR MIN TEMP:  78; 6HR MAX TEMP:  91;

*CALDWELL      NOT AVBL
*CROCKETT      LGT RAIN  73  73 100 CALM      30.05S
*BRENHAM       CLOUDY    94  68  42 S10       30.00F HX  98
6HR MIN TEMP:  81; 6HR MAX TEMP:  94;

HUNTSVILLE     CLOUDY    86  73  65 S9        30.01F HX  93
6HR MIN TEMP:  80; 6HR MAX TEMP:  86; 6HR PCP: TRACE;

CONROE         CLOUDY    89  72  56 SW5       30.02F HX  96
6HR MIN TEMP:  79; 6HR MAX TEMP:  89;

HOUSTON BUSH   PTSUNNY   92  73  53 W8        30.01F HX 100
6HR MIN TEMP:  81; 6HR MAX TEMP:  92;

HOUSTON HOBBY  CLOUDY    91  72  53 S3        30.01F HX  98
6HR MIN TEMP:  81; 6HR MAX TEMP:  92;

*HOUSTON SW AP CLOUDY    91  74  56 SW7       30.02F HX 100
6HR MIN TEMP:  74; 6HR MAX TEMP:  91;

PEARLAND       CLOUDY    93  71  48 S7        30.03S HX 100
6HR MIN TEMP:  81; 6HR MAX TEMP:  93;

HOUSTON HOOKS  CLOUDY    91  74  57 MISG      30.00F HX 100
6HR MIN TEMP:  80; 6HR MAX TEMP:  91;

ELLINGTON FLD  CLOUDY    93  73  52 S8        30.03F HX 102
SUGAR LAND     CLOUDY    93  70  46 SW15      30.00F HX  99
6HR MIN TEMP:  80; 6HR MAX TEMP:  93;

*HOUSTON EXEC  CLOUDY    91  73  55 S7        30.02F HAZE    HX 100
*CLEVELAND MUN CLOUDY    89  75  63 CALM      30.03F HAZE    HX  98
6HR MIN TEMP:  77; 6HR MAX TEMP:  89;

*WHARTON       MOSUNNY   93  62  34 S14G21    30.01S HX  94
6HR MIN TEMP:  76; 6HR MAX TEMP:  94;

*COLUMBUS      FAIR      94  62  34 SW9G20    30.01F HX  95
6HR MIN TEMP:  76; 6HR MAX TEMP:  94;

*EAGLE LAKE    CLOUDY    94  73  50 S8        30.00F HX 103
6HR MIN TEMP:  78; 6HR MAX TEMP:  94;

$$

TXZ214>216-236>238-241900-
THE UPPER TEXAS COAST

CITY           SKY/WX    TMP DP  RH WIND       PRES   REMARKS
*ORANGE        CLOUDY    88  76  67 CALM      30.04F HX 100
6HR MIN TEMP:  80; 6HR MAX TEMP:  89;

PORT ARTHUR    MOSUNNY   91  73  55 W10       30.02F HX  99
6HR MIN TEMP:  79; 6HR MAX TEMP:  91;

GALVESTON      MOSUNNY   89  77  67 SW15      30.04S HX 101
6HR MIN TEMP:  84; 6HR MAX TEMP:  90;

ANGLETON       MOSUNNY   92  74  55 S12G18    30.02S HX 101
6HR MIN TEMP:  80; 6HR MAX TEMP:  93; 6HR PCP: TRACE;

*BAY CITY      MOSUNNY   92  72  52 S12       30.02S HX  99
PALACIOS       MOSUNNY   87  74  64 S14       30.01S HX  95
6HR MIN TEMP:  82; 6HR MAX TEMP:  87;

$$

TXZ229>234-239>247-241900-
TEXAS COASTAL BEND AND RIO GRANDE PLAINS

CITY           SKY/WX    TMP DP  RH WIND       PRES   REMARKS
VICTORIA       MOSUNNY   96  65  35 S18G26    29.99S HX  98
6HR MIN TEMP:  77; 6HR MAX TEMP:  96;

*BEEVILLE      MOSUNNY   96  66  36 S17G23    29.97F HX  99
ROCKPORT       SUNNY     92  75  57 S13       29.98F HX 103
6HR MIN TEMP:  81; 6HR MAX TEMP:  92;

*PORT ARANSAS  MOSUNNY   88  75  65 S14G21    29.99S HX  98
6HR MIN TEMP:  82; 6HR MAX TEMP:  89;

*PORT LAVACA   MOSUNNY   90  71  52 S13G23    30.00F HX  96
6HR MIN TEMP:  78; 6HR MAX TEMP:  90;

*INGLESIDE     SUNNY     91  74  57 MISG      29.98F HX 101
CORPUS CHRISTI MOSUNNY   93  73  52 S16G25    29.96F HX 102
6HR MIN TEMP:  76; 6HR MAX TEMP:  93;

CORPUS NAS     MOSUNNY   92  76  59 S21G29    29.98F HX 104
6HR MIN TEMP:  83; 6HR MAX TEMP:  93;

*ROBSTOWN      SUNNY     95  71  46 S18G24    29.97S HX 102
6HR MIN TEMP:  79; 6HR MAX TEMP:  96;

ALICE          SUNNY     96  68  39 S10G23    29.94F HX 101
6HR MIN TEMP:  76; 6HR MAX TEMP:  97;

KINGSVILLE NAS MOSUNNY   97  72  44 SE12G25   29.95F HX 105
6HR MIN TEMP:  78; 6HR MAX TEMP:  98;

COTULLA        SUNNY     96  60  30 VRB6      29.95F HX  96
6HR MIN TEMP:  78; 6HR MAX TEMP:  96;

*FAITH RANCH   SUNNY     95  66  38 S12       29.94F HX  98
LAREDO         SUNNY     96  66  37 SE15G23   29.97  HX  99
$$

TXZ248>255-241900-
DEEP SOUTH TEXAS

CITY           SKY/WX    TMP DP  RH WIND       PRES   REMARKS
BROWNSVILLE    MOSUNNY   91  74  57 S22G28    29.98S HX 100
6HR MIN TEMP:  77; 6HR MAX TEMP:  91;

PORT ISABEL    MOSUNNY   94  73  50 S15G26    29.97S HX 103
6HR MIN TEMP:  79; 6HR MAX TEMP:  94;

*SOUTH PADRE   NOT AVBL
HARLINGEN      MOSUNNY   97  71  42 SE18G28   29.95S HX 104
6HR MIN TEMP:  78; 6HR MAX TEMP:  97;

*HEBBRONVILLE  SUNNY     93  62  35 S13G21    29.96F HX  93
6HR MIN T



USA.gov is the U.S. government's official web portal to all federal, state and local government web resources and services.